| time (UTC) | temp C | wind direction | speed KPH | gust KPH | rain 1hr cm | rain 24hr cm | rain mn cm | humidity % | barometer mb |
| 20260505071213 | 10 | 66 | 9.7 | 12.9 | 0.00 | 0.10 | 0.10 | 91 | 1010.4 |
| 20260505070710 | 10 | 12 | 9.7 | 11.3 | 0.00 | 0.10 | 0.10 | 91 | 1010.4 |
| 20260505070206 | 11 | 62 | 11.3 | 12.9 | 0.00 | 0.10 | 0.10 | 92 | 1009.4 |
| 20260505065702 | 11 | 343 | 8.0 | 11.3 | 0.00 | 0.10 | 0.10 | 91 | 1007.6 |
| 20260505065159 | 11 | 30 | 6.4 | 8.0 | 0.00 | 0.10 | 0.10 | 91 | 1008.3 |
| 20260505064656 | 11 | 79 | 3.2 | 3.2 | 0.00 | 0.10 | 0.10 | 91 | 1008.3 |
| 20260505064154 | 12 | 54 | 4.8 | 4.8 | 0.00 | 0.10 | 0.10 | 92 | 1007.9 |
| 20260505063652 | 12 | 74 | 4.8 | 4.8 | 0.00 | 0.10 | 0.10 | 93 | 1008.3 |
| 20260505063148 | 12 | 81 | 4.8 | 8.0 | 0.00 | 0.10 | 0.10 | 95 | 1007.9 |
| 20260505062644 | 12 | 134 | 0.0 | 0.0 | 0.00 | 0.10 | 0.10 | 94 | 1007.9 |
| 20260505062142 | 12 | 114 | 3.2 | 3.2 | 0.13 | 0.10 | 0.10 | 94 | 1007.6 |
| 20260505061639 | 12 | 122 | 0.0 | 0.0 | 0.13 | 0.10 | 0.10 | 95 | 1007.2 |
| 20260505061137 | 12 | 76 | 3.2 | 3.2 | 0.00 | 0.08 | 0.08 | 94 | 1007.6 |
| 20260505060634 | 12 | 103 | 1.6 | 1.6 | 0.00 | 0.08 | 0.08 | 93 | 1006.9 |
| 20260505060130 | 12 | 60 | 3.2 | 4.8 | 0.00 | 0.08 | 0.08 | 91 | 1006.9 |
| 20260505055626 | 12 | 23 | 8.0 | 11.3 | 0.00 | 0.08 | 0.08 | 90 | 1006.9 |
| 20260505055123 | 12 | 49 | 8.0 | 9.7 | 0.48 | 0.08 | 0.08 | 86 | 1006.5 |
| 20260505054620 | 16 | 82 | 6.4 | 8.0 | 0.30 | 0.05 | 0.05 | 75 | 1006.2 |
| 20260505054118 | 16 | 49 | 9.7 | 14.5 | 0.00 | 0.00 | 0.00 | 67 | 1005.9 |
| 20260505053615 | 18 | 91 | 4.8 | 8.0 | 0.00 | 0.00 | 0.00 | 61 | 1005.2 |
| 20260505053111 | 18 | 47 | 4.8 | 8.0 | 0.00 | 0.00 | 0.00 | 54 | 1005.5 |
| 20260505052608 | 20 | 36 | 8.0 | 11.3 | 0.00 | 0.00 | 0.00 | 53 | 1005.5 |
| 20260505052106 | 20 | 75 | 8.0 | 11.3 | 0.00 | 0.00 | 0.00 | 52 | 1005.5 |
| 20260505051603 | 20 | 45 | 6.4 | 8.0 | 0.00 | 0.00 | 0.00 | 54 | 1005.5 |
| 20260505051101 | 21 | 33 | 9.7 | 11.3 | 0.00 | 0.00 | 0.00 | 67 | 1005.2 |
| 20260505050558 | 20 | 68 | 4.8 | 8.0 | 0.00 | 0.00 | 0.00 | 76 | 1004.4 |
| 20260505041526 | 21 | 203 | 6.4 | 8.0 | 0.00 | 0.00 | 0.00 | 74 | 1004.4 |
| 20260505041024 | 21 | 174 | 6.4 | 11.3 | 0.00 | 0.00 | 0.00 | 73 | 1004.9 |
| 20260505040521 | 21 | 173 | 4.8 | 9.7 | 0.00 | 0.00 | 0.00 | 73 | 1004.4 |
| 20260505040018 | 21 | 151 | 4.8 | 9.7 | 0.00 | 0.00 | 0.00 | 73 | 1004.4 |
| 20260505035514 | 21 | 148 | 4.8 | 4.8 | 0.00 | 0.00 | 0.00 | 72 | 1004.9 |
| 20260505035011 | 21 | 189 | 4.8 | 9.7 | 0.00 | 0.00 | 0.00 | 72 | 1004.9 |
| 20260505034507 | 21 | 174 | 9.7 | 12.9 | 0.00 | 0.00 | 0.00 | 72 | 1004.4 |
| 20260505034004 | 21 | 134 | 6.4 | 8.0 | 0.00 | 0.00 | 0.00 | 72 | 1004.4 |
| 20260505033501 | 21 | 166 | 1.6 | 8.0 | 0.00 | 0.00 | 0.00 | 72 | 1004.4 |
| 20260505032959 | 21 | 197 | 4.8 | 8.0 | 0.00 | 0.00 | 0.00 | 71 | 1004.4 |
| 20260505032457 | 21 | 187 | 4.8 | 8.0 | 0.00 | 0.00 | 0.00 | 71 | 1004.9 |
| 20260505031953 | 22 | 150 | 4.8 | 4.8 | 0.00 | 0.00 | 0.00 | 70 | 1004.4 |
| 20260505031450 | 22 | 160 | 6.4 | 9.7 | 0.00 | 0.00 | 0.00 | 69 | 1004.4 |
| 20260505030947 | 22 | 183 | 9.7 | 12.9 | 0.00 | 0.00 | 0.00 | 68 | 1004.1 |
| 20260505030443 | 22 | 171 | 3.2 | 3.2 | 0.00 | 0.00 | 0.00 | 68 | 1004.1 |
| 20260505025938 | 22 | 184 | 4.8 | 8.0 | 0.00 | 0.00 | 0.00 | 67 | 1004.4 |
| 20260505025435 | 22 | 171 | 4.8 | 4.8 | 0.00 | 0.00 | 0.00 | 66 | 1004.4 |
| 20260505024934 | 22 | 153 | 4.8 | 4.8 | 0.00 | 0.00 | 0.00 | 66 | 1004.4 |
| 20260505024431 | 22 | 153 | 3.2 | 3.2 | 0.00 | 0.00 | 0.00 | 65 | 1004.1 |
| 20260505023928 | 23 | 170 | 4.8 | 8.0 | 0.00 | 0.00 | 0.00 | 65 | 1004.1 |
| 20260505023425 | 23 | 200 | 6.4 | 8.0 | 0.00 | 0.00 | 0.00 | 64 | 1004.1 |
| 20260505022923 | 23 | 202 | 6.4 | 8.0 | 0.00 | 0.00 | 0.00 | 63 | 1003.7 |
| 20260505022421 | 23 | 201 | 11.3 | 14.5 | 0.00 | 0.00 | 0.00 | 63 | 1004.1 |
| 20260505021917 | 23 | 184 | 6.4 | 8.0 | 0.00 | 0.00 | 0.00 | 63 | 1003.7 |
| 20260505021413 | 23 | 162 | 3.2 | 3.2 | 0.00 | 0.00 | 0.00 | 63 | 1003.7 |
| 20260505020909 | 23 | 161 | 3.2 | 4.8 | 0.00 | 0.00 | 0.00 | 63 | 1003.7 |
| 20260505020404 | 23 | 173 | 1.6 | 3.2 | 0.00 | 0.00 | 0.00 | 63 | 1003.7 |
| 20260505015902 | 23 | 184 | 3.2 | 4.8 | 0.00 | 0.00 | 0.00 | 62 | 1003.7 |
| 20260505015359 | 23 | 160 | 1.6 | 1.6 | 0.00 | 0.00 | 0.00 | 61 | 1003.7 |
| 20260505014856 | 23 | 164 | 1.6 | 1.6 | 0.00 | 0.00 | 0.00 | 61 | 1003.4 |
| 20260505014353 | 23 | 183 | 3.2 | 3.2 | 0.00 | 0.00 | 0.00 | 60 | 1003.7 |
| 20260505013850 | 23 | 167 | 0.0 | 0.0 | 0.00 | 0.00 | 0.00 | 59 | 1003.1 |
| 20260505013347 | 24 | 157 | 1.6 | 1.6 | 0.00 | 0.00 | 0.00 | 58 | 1003.1 |
| 20260505012845 | 24 | 158 | 0.0 | 0.0 | 0.00 | 0.00 | 0.00 | 57 | 1003.4 |
| 20260505012343 | 24 | 168 | 0.0 | 0.0 | 0.00 | 0.00 | 0.00 | 56 | 1003.1 |
| 20260505011839 | 25 | 161 | 1.6 | 3.2 | 0.00 | 0.00 | 0.00 | 55 | 1002.7 |
| 20260505011336 | 25 | 207 | 4.8 | 8.0 | 0.00 | 0.00 | 0.00 | 54 | 1003.1 |
| 20260505010832 | 25 | 160 | 1.6 | 3.2 | 0.00 | 0.00 | 0.00 | 54 | 1002.7 |
| 20260505010327 | 25 | 160 | 4.8 | 8.0 | 0.00 | 0.00 | 0.00 | 53 | 1002.7 |
| 20260505005824 | 25 | 151 | 0.0 | 1.6 | 0.00 | 0.00 | 0.00 | 53 | 1002.7 |
| 20260505005321 | 25 | 154 | 0.0 | 0.0 | 0.00 | 0.00 | 0.00 | 52 | 1002.7 |
| 20260505004819 | 25 | 155 | 0.0 | 0.0 | 0.00 | 0.00 | 0.00 | 51 | 1002.7 |
| 20260505004315 | 26 | 149 | 1.6 | 1.6 | 0.00 | 0.00 | 0.00 | 50 | 1002.7 |
| 20260505003812 | 26 | 163 | 1.6 | 1.6 | 0.00 | 0.00 | 0.00 | 49 | 1002.4 |
| 20260505003309 | 26 | 151 | 0.0 | 0.0 | 0.00 | 0.00 | 0.00 | 50 | 1002.4 |
| 20260505002805 | 26 | 183 | 1.6 | 3.2 | 0.00 | 0.00 | 0.00 | 50 | 1002.4 |
| 20260505002304 | 26 | 177 | 3.2 | 3.2 | 0.00 | 0.00 | 0.00 | 49 | 1002.4 |
| 20260505001801 | 26 | 167 | 1.6 | 1.6 | 0.00 | 0.00 | 0.00 | 48 | 1002.4 |
| 20260505001257 | 26 | 166 | 3.2 | 3.2 | 0.00 | 0.00 | 0.00 | 50 | 1002.4 |
| 20260505000755 | 26 | 176 | 1.6 | 3.2 | 0.00 | 0.00 | 0.00 | 49 | 1002.4 |
| 20260505000252 | 26 | 155 | 1.6 | 1.6 | 0.00 | 0.00 | 0.00 | 48 | 1002.4 |
| 20260504235749 | 26 | 193 | 0.0 | 0.0 | 0.00 | 0.00 | 0.00 | 48 | 1002.4 |
| 20260504235245 | 26 | 149 | 0.0 | 0.0 | 0.00 | 0.00 | 0.00 | 48 | 1002.4 |
| 20260504234742 | 27 | 156 | 3.2 | 3.2 | 0.00 | 0.00 | 0.00 | 48 | 1002.4 |
| 20260504234240 | 26 | 178 | 1.6 | 1.6 | 0.00 | 0.00 | 0.00 | 47 | 1002.4 |
| 20260504233736 | 26 | 164 | 1.6 | 1.6 | 0.00 | 0.00 | 0.00 | 48 | 1002.4 |
| 20260504233231 | 26 | 179 | 4.8 | 4.8 | 0.00 | 0.00 | 0.00 | 46 | 1002.4 |
| 20260504232729 | 26 | 179 | 4.8 | 8.0 | 0.00 | 0.00 | 0.00 | 46 | 1002.4 |
| 20260504232226 | 26 | 205 | 4.8 | 8.0 | 0.00 | 0.00 | 0.00 | 47 | 1002.4 |
| 20260504231722 | 27 | 211 | 6.4 | 8.0 | 0.00 | 0.00 | 0.00 | 46 | 1002.4 |
| 20260504231219 | 27 | 176 | 0.0 | 1.6 | 0.00 | 0.00 | 0.00 | 46 | 1002.7 |
| 20260504230715 | 27 | 210 | 8.0 | 9.7 | 0.00 | 0.00 | 0.00 | 46 | 1002.4 |
| 20260504230214 | 27 | 253 | 8.0 | 9.7 | 0.00 | 0.00 | 0.00 | 46 | 1002.4 |
| 20260504225712 | 27 | 229 | 6.4 | 9.7 | 0.00 | 0.00 | 0.00 | 45 | 1002.4 |
| 20260504225208 | 27 | 256 | 8.0 | 14.5 | 0.00 | 0.00 | 0.00 | 44 | 1002.4 |
| 20260504224705 | 27 | 189 | 4.8 | 4.8 | 0.00 | 0.00 | 0.00 | 44 | 1002.4 |
| 20260504224203 | 27 | 173 | 3.2 | 3.2 | 0.00 | 0.00 | 0.00 | 45 | 1002.7 |
| 20260504223659 | 27 | 262 | 11.3 | 12.9 | 0.00 | 0.00 | 0.00 | 44 | 1002.7 |
| 20260504223154 | 27 | 192 | 8.0 | 9.7 | 0.00 | 0.00 | 0.00 | 45 | 1002.7 |
| 20260504222652 | 28 | 251 | 9.7 | 11.3 | 0.00 | 0.00 | 0.00 | 44 | 1002.7 |
| 20260504222148 | 27 | 272 | 8.0 | 12.9 | 0.00 | 0.00 | 0.00 | 43 | 1002.4 |
| 20260504221646 | 27 | 192 | 9.7 | 12.9 | 0.00 | 0.00 | 0.00 | 43 | 1002.7 |
| 20260504221143 | 28 | 230 | 8.0 | 11.3 | 0.00 | 0.00 | 0.00 | 44 | 1002.7 |
| 20260504220639 | 27 | 192 | 4.8 | 8.0 | 0.00 | 0.00 | 0.00 | 45 | 1002.7 |
| 20260504220137 | 28 | 236 | 11.3 | 14.5 | 0.00 | 0.00 | 0.00 | 43 | 1002.7 |
| 20260504215633 | 27 | 192 | 4.8 | 8.0 | 0.00 | 0.00 | 0.00 | 44 | 1002.7 |
| 20260504215131 | 27 | 262 | 11.3 | 12.9 | 0.00 | 0.00 | 0.00 | 43 | 1002.7 |
| 20260504214626 | 27 | 276 | 9.7 | 12.9 | 0.00 | 0.00 | 0.00 | 43 | 1002.7 |
| 20260504214123 | 27 | 228 | 4.8 | 9.7 | 0.00 | 0.00 | 0.00 | 45 | 1003.1 |
| 20260504213619 | 27 | 260 | 8.0 | 11.3 | 0.00 | 0.00 | 0.00 | 45 | 1003.1 |
| 20260504213116 | 27 | 203 | 8.0 | 11.3 | 0.00 | 0.00 | 0.00 | 44 | 1003.1 |
| 20260504212612 | 27 | 260 | 12.9 | 14.5 | 0.00 | 0.00 | 0.00 | 46 | 1003.1 |
| 20260504212110 | 26 | 253 | 9.7 | 11.3 | 0.00 | 0.00 | 0.00 | 46 | 1003.1 |
| 20260504211607 | 27 | 271 | 8.0 | 12.9 | 0.00 | 0.00 | 0.00 | 46 | 1003.1 |
| 20260504211103 | 27 | 255 | 12.9 | 14.5 | 0.00 | 0.00 | 0.00 | 45 | 1003.1 |
| 20260504210601 | 27 | 198 | 8.0 | 11.3 | 0.00 | 0.00 | 0.00 | 45 | 1003.1 |
| 20260504210057 | 26 | 200 | 8.0 | 11.3 | 0.00 | 0.00 | 0.00 | 45 | 1003.1 |
| 20260504205555 | 26 | 241 | 11.3 | 12.9 | 0.00 | 0.00 | 0.00 | 44 | 1003.1 |
| 20260504205053 | 26 | 254 | 12.9 | 14.5 | 0.00 | 0.00 | 0.00 | 45 | 1003.4 |
| 20260504204550 | 26 | 250 | 8.0 | 9.7 | 0.00 | 0.00 | 0.00 | 48 | 1003.4 |
| 20260504204049 | 26 | 189 | 9.7 | 14.5 | 0.00 | 0.00 | 0.00 | 47 | 1003.1 |
| 20260504203547 | 26 | 196 | 6.4 | 8.0 | 0.00 | 0.00 | 0.00 | 46 | 1003.7 |
| 20260504203044 | 26 | 143 | 12.9 | 16.1 | 0.00 | 0.00 | 0.00 | 45 | 1003.4 |
| 20260504202539 | 26 | 144 | 11.3 | 12.9 | 0.00 | 0.00 | 0.00 | 46 | 1003.7 |
| 20260504202037 | 26 | 193 | 14.5 | 20.9 | 0.00 | 0.00 | 0.00 | 46 | 1003.7 |
| 20260504201533 | 27 | 221 | 14.5 | 20.9 | 0.00 | 0.00 | 0.00 | 46 | 1003.4 |
| 20260504201032 | 26 | 213 | 6.4 | 9.7 | 0.00 | 0.00 | 0.00 | 48 | 1003.4 |
| 20260504200527 | 27 | 165 | 9.7 | 11.3 | 0.00 | 0.00 | 0.00 | 47 | 1003.7 |
| 20260504200025 | 27 | 256 | 11.3 | 14.5 | 0.00 | 0.00 | 0.00 | 47 | 1003.1 |
| 20260504195520 | 27 | 206 | 11.3 | 12.9 | 0.00 | 0.00 | 0.00 | 47 | 1003.4 |
| 20260504195017 | 27 | 204 | 22.5 | 25.7 | 0.00 | 0.00 | 0.00 | 46 | 1003.7 |
| 20260504194514 | 27 | 188 | 11.3 | 14.5 | 0.00 | 0.00 | 0.00 | 46 | 1003.4 |
| 20260504194009 | 27 | 212 | 11.3 | 14.5 | 0.00 | 0.00 | 0.00 | 48 | 1003.4 |
| 20260504193506 | 26 | 250 | 12.9 | 16.1 | 0.00 | 0.00 | 0.00 | 47 | 1003.4 |
| 20260504193005 | 26 | 178 | 9.7 | 16.1 | 0.00 | 0.00 | 0.00 | 48 | 1003.4 |
| 20260504192503 | 26 | 212 | 11.3 | 16.1 | 0.00 | 0.00 | 0.00 | 49 | 1003.4 |
| 20260504192001 | 26 | 222 | 14.5 | 17.7 | 0.00 | 0.00 | 0.00 | 48 | 1003.4 |
| 20260504191458 | 26 | 229 | 17.7 | 25.7 | 0.00 | 0.00 | 0.00 | 48 | 1003.7 |
| 20260504190954 | 26 | 203 | 8.0 | 11.3 | 0.00 | 0.00 | 0.00 | 48 | 1003.4 |
| 20260504190449 | 26 | 198 | 4.8 | 4.8 | 0.00 | 0.00 | 0.00 | 49 | 1003.4 |
| 20260504185946 | 26 | 190 | 8.0 | 9.7 | 0.00 | 0.00 | 0.00 | 49 | 1003.4 |
| 20260504185444 | 26 | 169 | 8.0 | 11.3 | 0.00 | 0.00 | 0.00 | 49 | 1003.7 |
| 20260504184939 | 26 | 218 | 6.4 | 9.7 | 0.00 | 0.00 | 0.00 | 49 | 1003.7 |
| 20260504184436 | 26 | 259 | 8.0 | 12.9 | 0.00 | 0.00 | 0.00 | 47 | 1003.7 |
| 20260504183931 | 25 | 205 | 3.2 | 3.2 | 0.00 | 0.00 | 0.00 | 48 | 1003.7 |
| 20260504183429 | 26 | 205 | 9.7 | 11.3 | 0.00 | 0.00 | 0.00 | 47 | 1003.7 |
| 20260504182927 | 26 | 273 | 9.7 | 12.9 | 0.00 | 0.00 | 0.00 | 47 | 1004.1 |
| 20260504182423 | 25 | 236 | 9.7 | 11.3 | 0.00 | 0.00 | 0.00 | 46 | 1003.7 |
| 20260504181921 | 26 | 218 | 6.4 | 9.7 | 0.00 | 0.00 | 0.00 | 49 | 1004.1 |
| 20260504181418 | 25 | 186 | 6.4 | 9.7 | 0.00 | 0.00 | 0.00 | 50 | 1004.1 |
| 20260504180916 | 25 | 216 | 11.3 | 11.3 | 0.00 | 0.00 | 0.00 | 48 | 1004.1 |
| 20260504180415 | 25 | 216 | 8.0 | 11.3 | 0.00 | 0.00 | 0.00 | 49 | 1004.4 |
| 20260504175912 | 25 | 163 | 8.0 | 12.9 | 0.00 | 0.00 | 0.00 | 50 | 1004.1 |
| 20260504175409 | 25 | 242 | 14.5 | 17.7 | 0.00 | 0.00 | 0.00 | 49 | 1004.1 |
| 20260504174907 | 25 | 226 | 12.9 | 17.7 | 0.00 | 0.00 | 0.00 | 48 | 1004.4 |
| 20260504174404 | 24 | 228 | 12.9 | 14.5 | 0.00 | 0.00 | 0.00 | 48 | 1004.1 |
| 20260504173902 | 24 | 196 | 4.8 | 8.0 | 0.00 | 0.00 | 0.00 | 49 | 1004.4 |
| 20260504173358 | 24 | 237 | 11.3 | 12.9 | 0.00 | 0.00 | 0.00 | 48 | 1004.1 |
| 20260504172855 | 25 | 152 | 8.0 | 11.3 | 0.00 | 0.00 | 0.00 | 49 | 1004.4 |
| 20260504172352 | 24 | 264 | 12.9 | 14.5 | 0.00 | 0.00 | 0.00 | 49 | 1004.1 |
| 20260504171847 | 23 | 180 | 4.8 | 8.0 | 0.00 | 0.00 | 0.00 | 50 | 1004.1 |
| 20260504171345 | 23 | 210 | 9.7 | 12.9 | 0.00 | 0.00 | 0.00 | 51 | 1004.9 |
| 20260504170842 | 24 | 289 | 9.7 | 12.9 | 0.00 | 0.00 | 0.00 | 51 | 1004.4 |
| 20260504170338 | 24 | 230 | 11.3 | 11.3 | 0.00 | 0.00 | 0.00 | 49 | 1004.9 |
| 20260504160257 | 22 | 218 | 8.0 | 11.3 | 0.00 | 0.00 | 0.00 | 53 | 1004.4 |
| 20260504150722 | 21 | 218 | 17.7 | 24.1 | 0.00 | 0.00 | 0.00 | 54 | 1004.9 |
| 20260504150219 | 21 | 225 | 12.9 | 17.7 | 0.00 | 0.00 | 0.00 | 54 | 1005.2 |
| 20260504141148 | 20 | 188 | 6.4 | 9.7 | 0.00 | 0.00 | 0.00 | 58 | 1004.9 |
| 20260504140645 | 20 | 248 | 8.0 | 11.3 | 0.00 | 0.00 | 0.00 | 58 | 1005.2 |
| 20260504140140 | 19 | 205 | 9.7 | 12.9 | 0.00 | 0.00 | 0.00 | 58 | 1004.9 |
| 20260504130609 | 18 | 213 | 4.8 | 8.0 | 0.00 | 0.00 | 0.00 | 59 | 1004.4 |
| 20260504130106 | 18 | 140 | 9.7 | 12.9 | 0.00 | 0.00 | 0.00 | 59 | 1004.4 |
| 20260504110451 | 17 | 208 | 4.8 | 4.8 | 0.00 | 0.00 | 0.00 | 58 | 1005.2 |
| 20260504100413 | 18 | 208 | 17.7 | 22.5 | 0.00 | 0.00 | 0.00 | 53 | 1004.9 |
| 20260504081806 | 18 | 179 | 9.7 | 11.3 | 0.00 | 0.00 | 0.00 | 53 | 1005.9 |
| 20260504081303 | 18 | 198 | 9.7 | 11.3 | 0.00 | 0.00 | 0.00 | 53 | 1005.9 |
| 20260504080759 | 18 | 213 | 14.5 | 24.1 | 0.00 | 0.00 | 0.00 | 53 | 1005.9 |
| 20260504080255 | 18 | 195 | 11.3 | 14.5 | 0.00 | 0.00 | 0.00 | 53 | 1005.9 |